When you browse on this site, cookies collect data to enhance your experience and personalize the content and advertising you see.
Visit our Privacy Policy to learn more. By continuing to use the site, you agree to this use of cookies and data.
  • In Belgien
  • Länderverzeichnis
  • Für 7 Tage
  • Wassertemperatur
  • Wetterkarte
  • Widgets
  • user-avatar
    Anmelden

    Stündliche Wetter Fier

    Heute, 18 September, Mittwoch

    Zeit Temperatur Niederschläge Wind Luftdruck Luftfeuchtigkeit
    00:00 +23°C° 0 mm 1 m/S 760 mmHg 63%
    01:00 +23°C° 0 mm 1 m/S 760 mmHg 65%
    02:00 +22°C° 0 mm 1 m/S 760 mmHg 65%
    03:00 +22°C° 0 mm 1 m/S 759 mmHg 65%
    04:00 +22°C° 0 mm 1 m/S 759 mmHg 65%
    05:00 +23°C° 0 mm 1 m/S 759 mmHg 60%
    06:00 +24°C° 0 mm 1 m/S 760 mmHg 56%
    07:00 +25°C° 0 mm 2 m/S 760 mmHg 50%
    08:00 +27°C° 0 mm 2 m/S 760 mmHg 49%
    09:00 +28°C° 0 mm 2 m/S 760 mmHg 47%
    10:00 +30°C° 0 mm 2 m/S 760 mmHg 45%
    11:00 +30°C° 0 mm 3 m/S 760 mmHg 45%
    12:00 +31°C° 0 mm 3 m/S 759 mmHg 45%
    13:00 +32°C° 0 mm 4 m/S 759 mmHg 46%
    14:00 +31°C° 0 mm 3 m/S 759 mmHg 47%
    15:00 +30°C° 0 mm 3 m/S 759 mmHg 49%
    16:00 +30°C° 0 mm 3 m/S 759 mmHg 51%
    17:00 +28°C° 0 mm 2 m/S 759 mmHg 59%
    18:00 +27°C° 0 mm 2 m/S 759 mmHg 68%
    19:00 +25°C° 0 mm 1 m/S 760 mmHg 76%
    20:00 +25°C° 0 mm 1 m/S 760 mmHg 78%
    21:00 +24°C° 0 mm 1 m/S 760 mmHg 79%
    22:00 +24°C° 0 mm 1 m/S 760 mmHg 81%
    23:00 +24°C° 0 mm 1 m/S 761 mmHg 80%

    Morgen, 19 September, Donnerstag

    Zeit Temperatur Niederschläge Wind Luftdruck Luftfeuchtigkeit
    00:00 +23°C° 0 mm 1 m/S 761 mmHg 79%
    01:00 +23°C° 0 mm 1 m/S 761 mmHg 79%
    02:00 +23°C° 0 mm 1 m/S 760 mmHg 78%
    03:00 +23°C° 0 mm 1 m/S 760 mmHg 78%
    04:00 +23°C° 0 mm 1 m/S 760 mmHg 77%
    05:00 +23°C° 0 mm 1 m/S 760 mmHg 72%
    06:00 +24°C° 0 mm 1 m/S 760 mmHg 67%
    07:00 +25°C° 0 mm 2 m/S 760 mmHg 61%
    08:00 +27°C° 0 mm 2 m/S 760 mmHg 56%
    09:00 +29°C° 0 mm 2 m/S 760 mmHg 50%
    10:00 +31°C° 0 mm 2 m/S 760 mmHg 44%
    11:00 +30°C° 0.2 mm 3 m/S 760 mmHg 46%
    12:00 +30°C° 0.2 mm 4 m/S 760 mmHg 49%
    13:00 +30°C° 0.2 mm 5 m/S 759 mmHg 52%
    14:00 +30°C° 0.1 mm 4 m/S 759 mmHg 51%
    15:00 +29°C° 0.1 mm 3 m/S 759 mmHg 51%
    16:00 +29°C° 0.1 mm 2 m/S 759 mmHg 50%
    17:00 +28°C° 0.5 mm 2 m/S 760 mmHg 57%
    18:00 +26°C° 0.5 mm 2 m/S 760 mmHg 64%
    19:00 +25°C° 0.5 mm 2 m/S 760 mmHg 70%
    20:00 +24°C° 0.7 mm 1 m/S 761 mmHg 73%
    21:00 +24°C° 0.7 mm 1 m/S 761 mmHg 75%
    22:00 +23°C° 0.7 mm 1 m/S 761 mmHg 77%
    23:00 +23°C° 0.7 mm 1 m/S 761 mmHg 78%

    übermorgen, 20 September, Freitag

    Zeit Temperatur Niederschläge Wind Luftdruck Luftfeuchtigkeit
    00:00 +23°C° 0.7 mm 2 m/S 761 mmHg 79%
    01:00 +23°C° 0.7 mm 2 m/S 761 mmHg 80%
    02:00 +23°C° 0 mm 2 m/S 761 mmHg 79%
    03:00 +23°C° 0 mm 1 m/S 761 mmHg 79%
    04:00 +23°C° 0 mm 1 m/S 761 mmHg 79%
    05:00 +23°C° 0 mm 2 m/S 761 mmHg 76%
    06:00 +23°C° 0 mm 2 m/S 761 mmHg 74%
    07:00 +22°C° 0 mm 3 m/S 762 mmHg 71%
    08:00 +25°C° 0 mm 3 m/S 762 mmHg 64%
    09:00 +26°C° 0 mm 3 m/S 762 mmHg 58%
    10:00 +28°C° 0 mm 3 m/S 762 mmHg 51%
    11:00 +28°C° 0 mm 4 m/S 762 mmHg 49%
    12:00 +28°C° 0 mm 5 m/S 762 mmHg 46%
    13:00 +29°C° 0 mm 6 m/S 762 mmHg 44%
    14:00 +28°C° 0 mm 6 m/S 762 mmHg 43%
    15:00 +28°C° 0 mm 7 m/S 762 mmHg 43%
    16:00 +27°C° 0 mm 7 m/S 762 mmHg 42%
    17:00 +26°C° 0 mm 6 m/S 762 mmHg 46%
    18:00 +23°C° 0 mm 5 m/S 762 mmHg 50%
    19:00 +22°C° 0 mm 4 m/S 763 mmHg 54%
    20:00 +21°C° 0 mm 3 m/S 763 mmHg 55%
    21:00 +21°C° 0 mm 3 m/S 763 mmHg 55%
    22:00 +21°C° 0 mm 3 m/S 764 mmHg 55%
    23:00 +21°C° 0 mm 3 m/S 764 mmHg 55%

    21 September, Samstag

    Zeit Temperatur Niederschläge Wind Luftdruck Luftfeuchtigkeit
    00:00 +20°C° 0 mm 2 m/S 764 mmHg 54%
    01:00 +20°C° 0 mm 2 m/S 764 mmHg 54%
    02:00 +20°C° 0 mm 2 m/S 764 mmHg 52%
    03:00 +19°C° 0 mm 2 m/S 765 mmHg 51%
    04:00 +19°C° 0 mm 2 m/S 765 mmHg 50%
    05:00 +20°C° 0 mm 3 m/S 765 mmHg 48%
    06:00 +20°C° 0 mm 3 m/S 765 mmHg 46%
    07:00 +21°C° 0 mm 3 m/S 765 mmHg 43%
    08:00 +24°C° 0 mm 2 m/S 765 mmHg 41%
    09:00 +26°C° 0 mm 2 m/S 765 mmHg 39%
    10:00 +28°C° 0 mm 1 m/S 766 mmHg 37%
    11:00 +29°C° 0 mm 2 m/S 765 mmHg 39%
    12:00 +29°C° 0 mm 3 m/S 765 mmHg 41%
    13:00 +29°C° 0 mm 3 m/S 765 mmHg 43%
    14:00 +29°C° 0 mm 3 m/S 765 mmHg 47%
    15:00 +28°C° 0 mm 3 m/S 764 mmHg 50%
    16:00 +27°C° 0 mm 3 m/S 764 mmHg 54%
    17:00 +26°C° 0 mm 3 m/S 764 mmHg 58%
    18:00 +24°C° 0 mm 2 m/S 765 mmHg 61%
    19:00 +23°C° 0 mm 1 m/S 765 mmHg 65%
    20:00 +23°C° 0 mm 1 m/S 765 mmHg 66%
    21:00 +22°C° 0 mm 1 m/S 765 mmHg 68%
    22:00 +22°C° 0 mm 1 m/S 765 mmHg 69%
    23:00 +22°C° 0 mm 1 m/S 765 mmHg 71%

    22 September, Sonntag

    Zeit Temperatur Niederschläge Wind Luftdruck Luftfeuchtigkeit
    00:00 +21°C° 0 mm 1 m/S 765 mmHg 72%
    01:00 +21°C° 0 mm 1 m/S 765 mmHg 74%
    02:00 +21°C° 0 mm 1 m/S 764 mmHg 75%
    03:00 +21°C° 0 mm 1 m/S 764 mmHg 75%
    04:00 +20°C° 0 mm 1 m/S 764 mmHg 76%
    05:00 +21°C° 0 mm 1 m/S 764 mmHg 72%
    06:00 +22°C° 0 mm 1 m/S 764 mmHg 69%
    07:00 +23°C° 0 mm 1 m/S 764 mmHg 65%
    08:00 +24°C° 0 mm 1 m/S 764 mmHg 60%
    09:00 +26°C° 0 mm 1 m/S 764 mmHg 54%
    10:00 +28°C° 0 mm 1 m/S 764 mmHg 49%
    11:00 +28°C° 0 mm 1 m/S 764 mmHg 46%
    12:00 +29°C° 0 mm 2 m/S 763 mmHg 43%
    13:00 +29°C° 0 mm 3 m/S 763 mmHg 40%
    14:00 +29°C° 0 mm 3 m/S 763 mmHg 41%
    15:00 +28°C° 0 mm 2 m/S 762 mmHg 43%
    16:00 +28°C° 0 mm 2 m/S 762 mmHg 44%
    17:00 +26°C° 0 mm 2 m/S 762 mmHg 49%
    18:00 +25°C° 0 mm 1 m/S 762 mmHg 55%
    19:00 +23°C° 0 mm 1 m/S 762 mmHg 60%
    20:00 +23°C° 0 mm 1 m/S 762 mmHg 61%
    21:00 +23°C° 0 mm 1 m/S 763 mmHg 63%
    22:00 +23°C° 0 mm 1 m/S 763 mmHg 64%
    23:00 +23°C° 0 mm 1 m/S 762 mmHg 63%

    23 September, Montag

    Zeit Temperatur Niederschläge Wind Luftdruck Luftfeuchtigkeit
    00:00 +23°C° 0 mm 2 m/S 762 mmHg 62%
    01:00 +23°C° 0 mm 2 m/S 762 mmHg 62%
    02:00 +23°C° 0 mm 2 m/S 762 mmHg 61%
    03:00 +23°C° 0 mm 2 m/S 762 mmHg 60%
    04:00 +23°C° 0 mm 2 m/S 761 mmHg 60%
    05:00 +24°C° 0 mm 2 m/S 761 mmHg 57%
    06:00 +24°C° 0 mm 3 m/S 761 mmHg 55%
    07:00 +25°C° 0 mm 3 m/S 761 mmHg 53%
    08:00 +26°C° 0 mm 3 m/S 761 mmHg 50%
    09:00 +27°C° 0 mm 3 m/S 761 mmHg 46%
    10:00 +28°C° 0 mm 3 m/S 761 mmHg 43%
    11:00 +29°C° 0.1 mm 4 m/S 760 mmHg 42%
    12:00 +30°C° 0.1 mm 5 m/S 759 mmHg 41%
    13:00 +32°C° 0.1 mm 6 m/S 759 mmHg 40%
    14:00 +32°C° 0 mm 7 m/S 758 mmHg 44%
    15:00 +30°C° 0 mm 7 m/S 758 mmHg 47%
    16:00 +31°C° 0 mm 8 m/S 757 mmHg 51%
    17:00 +28°C° 0.4 mm 7 m/S 757 mmHg 58%
    18:00 +27°C° 0.4 mm 6 m/S 757 mmHg 66%
    19:00 +25°C° 0.4 mm 5 m/S 757 mmHg 74%
    20:00 +25°C° 0.9 mm 5 m/S 757 mmHg 76%
    21:00 +25°C° 0.9 mm 5 m/S 757 mmHg 79%
    22:00 +23°C° 0.9 mm 5 m/S 757 mmHg 81%
    23:00 +23°C° 0.3 mm 5 m/S 757 mmHg 80%
    Mehr zeigen